Regional Weather Roundup
Issued by NWS Wakefield, VA

Home | Current Version | Previous Version | Graphics & Text | Print | Product List | Glossary On
Versions: 1 2 3 4 5 6 7 8 9 10 11 12 13 14 15 16 17 18 19 20 21 22 23 24 25 26
000
ASUS41 KAKQ 261915
RWRAKQ

REGIONAL WEATHER ROUNDUP
NATIONAL WEATHER SERVICE WAKEFIELD VA
300 PM EDT TUE JUL 26 2016

Note: "fair" indicates few or no clouds below 12,000 feet with no
significant weather and/or obstructions to visibility. * = Denotes
station may not report precipitation (e.g., rain,snow,etc.),
thunder or fog.

VAZ042-051-052>054-056-262000-
NORTHERN VIRGINIA

CITY           SKY/WX    TMP DP  RH WIND       PRES   REMARKS
WASH NATIONAL  PTSUNNY   96  70  42 N9        29.94F HX 102
DULLES         PTSUNNY   93  68  43 W12       29.96F HX  97
FORT BELVOIR   FAIR      96  69  41 W10       29.93F HX 101
QUANTICO       PTSUNNY   93  73  52 S3        29.94F HX 102
FREDERICKSBRG*   N/A     95  73  48 N8        29.93F HX 104
STAFFORD*      FAIR      95  67  40 CALM      29.98F HX  99
WARRENTON      FAIR      93  64  38 N3        29.95F HX  95
CULPEPER*      FAIR      94  76  55 CALM      29.96S HX 107
MANASSAS*      SUNNY     93  70  46 N6        29.95F HX  99
LEESBURG*      FAIR      91  75  59 W3G18     29.97F HX 102
WINCHESTER     FAIR      86  70  58 NW5       29.98F
FRONT ROYAL*   FAIR      90  70  51 NW6       29.97  HX  95
LURAY*         FAIR      93  70  46 SW3       29.98F HX  99
$$

VAZ048-049-060>072-079>083-262000-
CENTRAL AND SOUTH CENTRAL VIRGINIA

CITY           SKY/WX    TMP DP  RH WIND       PRES   REMARKS
RICHMOND       PTSUNNY   94  74  52 N5        29.93F HX 104
CHESTERFIELD*  MOCLDY    97  66  36 NE3       29.95F HX 100
PETERSBURG*    FAIR      95  74  50 SE5       29.94F HX 105
HANOVER        FAIR      96  72  45 NW8       29.95F HX 104
TAPPAHANNOCK*  FAIR      96  70  41 CALM      29.94F HX 102
QUINTON*       MOCLDY    92  76  60 CALM      29.93F HX 105
CHARLOTTSVILLE FAIR      97  69  40 N9        29.95F HX 103
GORDONSVILLE*  MOCLDY    94  75  52 CALM      29.95F HX 105
ORANGE*        NOT AVBL
LOUISA*        FAIR      97  75  49 CALM      29.94F HX 109
BUMPASS*       FAIR      92  75  57 CALM      29.95F HX 104
FARMVILLE*     NOT AVBL
CREWE*         CLOUDY    93  76  57 S6        29.95S HX 104
FORT PICKETT*  MOCLDY    89  79  70 E6        29.95F HX 104
CHASE CITY*    FAIR      95  71  45 W5        29.96F HX 102
CLARKSVILLE*   FAIR      97  75  49 S6        29.95F HX 109
SOUTH HILL*    CLOUDY    93  76  58 N5        29.99F HX 106
LAWRENCEVILLE* FAIR      95  78  56 W3        29.94F HX 111
EMPORIA*       CLOUDY    91  75  59 NE5       29.94F HX 102
$$

VAZ088>098-262000-
SOUTHEAST VIRGINIA

CITY           SKY/WX    TMP DP  RH WIND       PRES   REMARKS
NORFOLK        FAIR      92  74  55 NE9       29.93F HX 101
VIRGINIA BEACH PTSUNNY   98  72  42 NE7       29.92F HX 107
NORFOLK NAVAL  FAIR      94  74  52 VRB7      29.95F HX 104
WEST POINT*    CLOUDY    94  73  49 SW5       29.93F HX 103
SALUDA*        FAIR      89  78  70 E5        29.94S HX 103
NEWPORT NEWS   FAIR      91  78  65 E7        29.93F HX 106
LANGLEY AFB    MOSUNNY   88  76  68 E8        29.93F HX  98
FORT EUSTIS    FAIR      97  78  54 VRB5      29.91F HX 114
WILLIAMSBURG*  FAIR      99  79  53 S7        29.94F HX 117
HR EXEC AP*    FAIR      97  77  52 CALM      29.94F HX 112
FRANKLIN*      FAIR      93  76  56 W5        29.93F HX 106
US460-WAKEFLD  PTSUNNY   95  75  52 CALM      29.93F HX 107
$$

VAZ020-022-025-037-045-262000-
WEST CENTRAL AND SOUTHWEST VIRGINIA

CITY           SKY/WX    TMP DP  RH WIND       PRES   REMARKS
STAUNTON*      PTSUNNY   89  71  56 E3        30.01F HX  95
WAYNESBORO*    MOCLDY    89  69  51 N7        30.01F
HOT SPRINGS VA LGT RAIN  81  70  69 NW8       30.17
LYNCHBURG      FAIR      94  69  44 VRB5      29.99F HX  99
DANVILLE       FAIR      94  70  45 VRB5      29.97F HX 100
SOUTH BOSTON*  FAIR      97  71  42 SW5       29.96S HX 104
MARTINSVILLE   FAIR      95  71  45 NW3       30.02F HX 101
ROANOKE        FAIR      95  69  42 W9        30.02F HX 100
BLACKSBURG     FAIR      89  71  56 CALM      30.11F HX  95
DUBLIN*        CLOUDY    88  71  57 NW3       30.09F
MARION*        PTSUNNY   89  73  57 W9        30.14F HX  96
HILLSVILLE*    PTSUNNY   83  70  65 CALM      30.12F
RICHLANDS*     MOCLDY    85  70  60 SW5       30.13F
WISE*          PTSUNNY   86  59  39 N6        30.15F
ABINGDON*      PTSUNNY   89  69  51 CALM      30.09F
$$

MDZ021>025-VAZ099-100-262000-
SOUTHERN MARYLAND AND THE DELMARVA PENINSULA

CITY           SKY/WX    TMP DP  RH WIND       PRES   REMARKS
PATUXENT RIVER PTSUNNY   87  73  62 S7        29.93F THUNDER
BAY BRIDGE APT MOSUNNY   90  75  62 SW6       29.93F HX 100
LEONARDTOWN      N/A     91  73  55 SE8       29.95F HX 100
DOVER          CLOUDY    90  74  59 W9        29.92S HX  98
GEORGETOWN     PTSUNNY   92  73  53 VRB5      29.93F HX 100
EASTON         PTSUNNY   93  77  59 W7        29.97F HX 107
CAMBRIDGE      MOSUNNY   90  73  58 W5        29.93S HX  98
SALISBURY      MOSUNNY   92  75  57 VRB3      29.93S HX 103
OCEAN CITY     MOSUNNY   84  74  71 VRB5      29.94F
WALLOPS ISLAND FAIR      88  72  58 SE8       29.95S
ACCOMACK*      FAIR      90  70  51 SE8       29.94F HX  95
$$

NCZ012>017-030>032-262000-
NORTH CENTRAL AND EASTERN NORTH CAROLINA

CITY           SKY/WX    TMP DP  RH WIND       PRES   REMARKS
ROANOKE RAPIDS FAIR      93  75  55 W6        29.94F HX 104
RALEIGH        PTSUNNY   95  76  53 SW12      29.97F HX 108
ELIZABETH CITY MOSUNNY   94  77  57 W6        29.93F HX 108
AHOSKIE*       NOT AVBL
EDENTON*       SUNNY     95  76  53 SW6       29.95F HX 107
CURRITUCK*     MOSUNNY   94  76  56 CALM      29.94F HX 108
KILL DEVIL HLS SUNNY     98  74  45 W5        29.94F HX 109
MANTEO           N/A     91  79  67 NE5       29.95F HX 107
CAPE HATTERAS  SUNNY     85  77  77 SW14G22   29.97F HX  95
TARBORO*       FAIR      95  78  58 SW5       29.95F HX 111
GOLDSBORO      MOSUNNY   96  74  48 SW10      29.95F HX 106
WASHINGTON     SUNNY     93  78  60 SW13      29.95F HX 108
GREENVILLE     SUNNY     95  77  55 W8        29.97F HX 109
NEW BERN       SUNNY     94  75  54 W12       29.98F HX 105
WILMINGTON     MOSUNNY   93  73  52 S9        29.99F HX 102
$$

VAZ048-262000-
ELSEWHERE

CITY           SKY/WX    TMP DP  RH WIND       PRES   REMARKS
HARRISBURG PA  PTSUNNY   89  73  59 S5        29.92F HX  97
BALTIMORE      CLOUDY    91  68  46 NW6       29.93F HX  95
ANNAPOLIS      MOSUNNY   91  72  53 NW5       29.92F HX  98
ANDREWS AFB    FAIR      92  69  46 NW10      29.94F HX  97
PHILADELPHIA   PTSUNNY   91  67  44 NW15G21   29.91F
GREENSBORO     PTSUNNY   97  68  38 VRB5      29.98F HX 102
ROCKY MOUNT    MOSUNNY   95  78  58 SW10      29.96F HX 111
$$

VAZ100-262000-
MARINE

STATION/POSITION TIME  TEMP    WIND        PRES    WAVE   SWELL
                       AIR SEA DIR/SP/G            HT/PER HT/PER
                 (UTC) (F)     (DEG/KT/KT) (MB)    (FT/S) (FT/S)
BRANDYWINE LGT   1800   81     230/  3/  3   N/A
CAPE MAY NJ      1800   78 74  260/  5/  6 1013.3F
LEWES DE         1800   84 75   20/  2/  2 1013.5F
OCEAN-CITY-INLET 1800   83 69  100/  7/  8 1014.3F
WACHAPREAGUE VA  1800   81 86   80/  7/  8 1014.3F
THOMAS POINT MD  1900   85 85  160/  8/  8 1014.7F
GOOSES REEF MD   1900   88 88  100/  2/  4 1014.6F   1
COVE POINT MD    1800   85      40/  3/  4 1014.5F
SOLOMONS ISLAND  1800   86 85   90/  7/  8   N/A
BISHOPS HEAD MD  1800   88     220/  2/  4 1014.3F
PINEY POINT MD   1800          190/  2/  3   N/A
POTOMAC MD       1900   86 87  120/  4/  6 1012.5F   0
CAMBRIDGE MD     1800   88 86  350/  4/  6 1013.0F
LEWISETTA VA     1800   86 87  130/  6/  7 1013.6F
RAPPAHANNOCK LGT 1800          360/  4/  5 1014.7F
STINGRAY PT      1900   87 87   30/  4/  6 1014.1F   1
YORK RVR RNG VA  1800   85     100/  7/  7 1013.7F
YORKTOWN VA      1800   86 83   90/ 11/ 12 1013.7F
JAMESTOWN VA     1900   92 89  250/  2/  4   N/A     0
DOMINION TERM VA 1800   89      CALM  /  1 1014.1F
KIPTOPEKE VA     1800      84   90/  7/ 10   N/A
CHES BAY BRIDGE  1800   85 77  360/  3/  4 1014.1F
CAPE HENRY VA    1800   87     320/  5/  6   N/A
WILLOUBY STN VA  1800   86      80/  7/  8   N/A
CAPE HENRY BUOY  1812      74                N/A     2/ 5
1ST LANDING BUOY 1900   88 81   40/  4/  6 1013.2F
CAPE CHARLES BUO 1826      74                N/A     2/ 5
OFFSHORE WE BUOY 1821      83                N/A     2/ 6
64NM E OF VA BCH 1850   82 81  240/  8/ 10 1013.9F   4/ 6   3/ 6
DUCK PIER NC     1800   87 60  240/  8/  9 1013.7F
44100 DUCK FRF   1805      76                N/A     2/ 5
44056 DUCK FRF   1811      68                N/A     1/ 9
OREGON INLET NC  1800   86 84  200/ 14/ 17 1014.4F
HATTERAS NC      1800   85 83  220/ 13/ 18 1015.0F
DIAMOND SHLS NC  1850   84 84  230/ 21/ 25 1014.7F   5/ 6
CAPE LOOKOUT NC  1900   86     230/ 13/ 17 1015.3F
$$




USA.gov is the U.S. government's official web portal to all federal, state and local government web resources and services.